Location: Newark
(48.0000°N, 67.0000°E)
Time: 14:31:38
(UTC+00:00)

A-11 Canister half - Pass Details

Date: 20 February 2020
Orbit: 1516 x 1683 km, 47.2° (Epoch: 06 April)

Event Time Altitude Azimuth Distance (km) Brightness Sun altitude
Rises 16:44:49 0° 284° (WNW) 4,830 12.5 -37.1°
Reaches altitude 10° 16:47:59 10° 283° (WNW) 3,821 11.7 -37.6°
Enters shadow 16:56:32 65° 237° (WSW) 1,701 9.1 -38.8°
